Location: Newark
(35.9031°N, 139.7175°E)
Time: 07:55:50
(UTC+00:00)

Explorer 11/Cluster Stage 4 - All Passes

Search period start: 26 May 2020 00:00
Search period end: 05 June 2020 00:00
Orbit: 467 x 1259 km, 28.8° (Epoch: 25 May)

Date Brightness Start Highest point End Pass type
(mag) Time Alt. Az. Time Alt. Az. Time Alt. Az.
26 May - 00:05:11 10° WSW 00:13:03 50° S 00:20:43 10° ESE daylight
26 May - 01:54:15 10° W 02:02:04 47° S 02:09:08 10° ESE daylight
26 May - 03:44:14 10° WSW 03:50:36 27° SSW 03:56:12 10° SSE daylight
26 May - 20:20:38 10° S 20:24:50 16° SSE 20:29:18 10° ESE daylight
26 May - 22:06:10 10° SW 22:13:06 37° SSE 22:20:29 10° E daylight
26 May - 23:54:11 10° WSW 00:02:00 52° S 00:09:47 10° ESE daylight
27 May - 01:43:15 10° W 01:51:01 46° SSW 01:58:14 10° ESE daylight
27 May - 03:33:19 10° WSW 03:39:33 25° SSW 03:45:09 10° SSE daylight
27 May - 20:09:16 10° S 20:13:46 18° SSE 20:18:39 10° ESE daylight
27 May - 21:55:10 10° SW 22:02:02 39° SSE 22:09:31 10° E daylight
27 May - 23:43:13 10° WSW 23:50:58 52° S 23:58:50 10° ESE daylight
28 May - 01:32:16 10° W 01:39:59 44° SSW 01:47:16 10° SE daylight
28 May - 03:22:28 10° WSW 03:28:29 23° SSW 03:34:02 10° SSE daylight
28 May - 19:58:01 10° SSW 20:02:43 20° SSE 20:07:54 10° ESE daylight
28 May - 21:44:11 10° SW 21:50:59 41° SSE 21:58:32 10° E daylight
28 May - 23:32:17 10° WSW 23:39:55 52° S 23:47:51 10° ESE daylight
29 May - 01:21:19 10° W 01:28:55 42° SSW 01:36:16 10° SE daylight
29 May - 03:11:40 10° WSW 03:17:25 21° SSW 03:22:48 10° SSE daylight
29 May - 19:46:52 10° SSW 19:51:40 21° SSE 19:57:05 10° ESE daylight
29 May - 21:33:17 10° SW 21:39:58 43° SSE 21:47:30 10° E daylight
29 May - 23:21:23 10° WSW 23:28:53 52° S 23:36:50 10° ESE daylight
30 May - 01:10:24 10° W 01:17:52 39° SSW 01:25:12 10° SE daylight
30 May - 03:00:57 10° WSW 03:06:20 19° SSW 03:11:27 10° SSE daylight
30 May - 19:35:49 10° SSW 19:40:39 23° SSE 19:46:12 10° ESE daylight
30 May - 21:22:25 10° WSW 21:28:57 44° SSE 21:36:28 10° E daylight
30 May - 23:10:32 10° WSW 23:17:51 51° S 23:25:47 10° ESE daylight
31 May - 00:59:32 10° W 01:06:47 37° SSW 01:14:04 10° SE daylight
31 May - 02:50:21 10° WSW 02:55:15 17° SSW 02:59:58 10° S daylight
31 May - 19:24:51 10° SSW 19:29:40 25° SSE 19:35:16 10° ESE daylight
31 May - 21:11:36 10° WSW 21:17:57 45° S 21:25:25 10° E daylight
31 May - 22:59:42 10° WSW 23:06:50 49° S 23:14:42 10° ESE daylight
01 Jun - 00:48:42 10° W 00:55:43 34° SSW 01:02:54 10° SE daylight
01 Jun - 02:39:56 10° WSW 02:44:09 15° SSW 02:48:18 10° S daylight
01 Jun - 19:13:56 10° SSW 19:18:42 26° SSE 19:24:19 10° ESE daylight
01 Jun - 21:00:49 10° WSW 21:07:00 46° S 21:14:20 10° ESE daylight
01 Jun - 22:48:55 10° WSW 22:55:49 47° S 23:03:35 10° ESE daylight
02 Jun - 00:37:56 10° WSW 00:44:40 31° SSW 00:51:38 10° SE daylight
02 Jun - 02:29:47 10° SW 02:33:04 13° SSW 02:36:20 10° S daylight
02 Jun - 19:03:04 10° SW 19:07:46 28° SSE 19:13:21 10° ESE daylight
02 Jun - 20:50:04 10° WSW 20:56:03 46° S 21:03:14 10° ESE daylight
02 Jun - 22:38:09 10° WSW 22:44:49 45° S 22:52:25 10° ESE daylight
03 Jun - 00:27:14 10° WSW 00:33:36 28° SSW 00:40:19 10° SSE daylight
03 Jun - 02:20:21 10° SW 02:22:00 11° SSW 02:23:38 10° SSW daylight
03 Jun - 18:52:16 10° SW 18:56:51 29° SSE 19:02:22 10° ESE visible
03 Jun - 20:39:21 10° WSW 20:45:07 46° S 20:52:08 10° ESE daylight
03 Jun - 22:27:26 10° WSW 22:33:50 42° S 22:41:14 10° ESE daylight
04 Jun - 00:16:35 10° WSW 00:22:33 25° SSW 00:28:54 10° SSE daylight
04 Jun - 16:57:58 10° SSE 16:58:26 10° SSE 16:58:54 10° SE visible
04 Jun - 18:41:31 10° SW 18:45:58 30° SSE 18:51:22 10° ESE visible
04 Jun - 20:28:41 10° WSW 20:34:13 45° S 20:41:01 10° ESE daylight
04 Jun - 22:16:45 10° WSW 22:22:52 39° SSW 22:30:00 10° SE daylight
